GW5626 Weather Reports


Display with metric or nautical units.
time (UTC)temp
F
wind
direction
speed
MPH
gust
MPH
rain 1hr
in
rain 24hr
in
rain mn
in
humidity
%
barometer
mb
20260505061927 54 131 1.0 4.0 0.00 0.00 0.00 87 1024.4
20260505061425 54 204 1.0 2.0 0.00 0.00 0.00 87 1024.4
20260505060922 54 66 1.0 4.0 0.00 0.00 0.00 87 1024.2
20260505060419 54 81 2.0 4.0 0.00 0.00 0.00 86 1024.3
20260505055915 54 121 2.0 6.0 0.00 0.00 0.00 86 1024.2
20260505055412 54 153 2.0 6.0 0.00 0.00 0.00 85 1024.4
20260505054908 55 154 1.0 6.0 0.00 0.00 0.00 85 1023.9
20260505054406 55 168 3.0 8.0 0.00 0.00 0.00 85 1024.0
20260505053904 55 205 2.0 6.0 0.00 0.00 0.00 84 1024.0
20260505053401 55 351 4.0 8.0 0.00 0.00 0.00 84 1023.9
20260505052857 55 193 3.0 7.0 0.00 0.00 0.00 83 1023.9
20260505052354 56 108 1.0 6.0 0.00 0.00 0.00 82 1023.9
20260505051852 56 178 1.0 6.0 0.00 0.00 0.00 82 1024.0
20260505051348 56 94 4.0 7.0 0.00 0.00 0.00 81 1023.9
20260505050847 56 347 3.0 9.0 0.00 0.00 0.00 81 1023.5
20260505050345 57 286 1.0 7.0 0.00 0.00 0.00 81 1023.7
20260505041312 60 90 3.0 4.0 0.00 0.00 0.00 74 1023.3
20260505040809 60 158 6.0 10.0 0.00 0.00 0.00 74 1023.3
20260505040307 60 209 5.0 7.0 0.00 0.00 0.00 73 1023.2
20260505035803 61 13 6.0 9.0 0.00 0.00 0.00 72 1022.9
20260505035259 61 110 4.0 8.0 0.00 0.00 0.00 71 1023.1
20260505034756 62 27 2.0 9.0 0.00 0.00 0.00 70 1023.1
20260505034253 62 77 3.0 10.0 0.00 0.00 0.00 70 1022.6
20260505033750 62 29 5.0 9.0 0.00 0.00 0.00 69 1022.7
20260505033248 63 179 5.0 8.0 0.00 0.00 0.00 68 1022.6
20260505032745 63 65 3.0 10.0 0.00 0.00 0.00 67 1022.5
20260505032241 63 52 4.0 7.0 0.00 0.00 0.00 67 1022.4
20260505031739 64 193 4.0 7.0 0.00 0.00 0.00 66 1022.6
20260505031235 64 223 3.0 7.0 0.00 0.00 0.00 66 1022.5
20260505030732 64 219 4.0 6.0 0.00 0.00 0.00 65 1022.4
20260505030228 65 328 2.0 4.0 0.00 0.00 0.00 64 1022.4
20260505025724 66 144 2.0 10.0 0.00 0.00 0.00 63 1022.2
20260505025222 66 207 4.0 6.0 0.00 0.00 0.00 63 1022.1
20260505024720 67 154 4.0 7.0 0.00 0.00 0.00 62 1022.0
20260505024217 67 111 4.0 7.0 0.00 0.00 0.00 62 1022.2
20260505023714 67 149 3.0 9.0 0.00 0.00 0.00 61 1021.7
20260505023211 68 190 4.0 7.0 0.00 0.00 0.00 60 1022.1
20260505022709 69 190 2.0 3.0 0.00 0.00 0.00 60 1022.0
20260505022205 69 156 3.0 7.0 0.00 0.00 0.00 58 1021.8
20260505021702 70 190 2.0 4.0 0.00 0.00 0.00 58 1022.0
20260505021159 70 207 2.0 4.0 0.00 0.00 0.00 57 1022.0
20260505020655 71 169 2.0 6.0 0.00 0.00 0.00 56 1021.9
20260505020151 71 166 3.0 4.0 0.00 0.00 0.00 55 1022.0
20260505015648 72 182 2.0 6.0 0.00 0.00 0.00 54 1021.9
20260505015145 74 165 3.0 7.0 0.00 0.00 0.00 52 1022.0
20260505014641 75 196 2.0 4.0 0.00 0.00 0.00 51 1021.7
20260505014139 77 182 2.0 4.0 0.00 0.00 0.00 51 1022.1
20260505013636 78 107 1.0 2.0 0.00 0.00 0.00 52 1021.9
20260505013133 78 84 1.0 3.0 0.00 0.00 0.00 52 1021.8
20260505012631 79 158 0.0 4.0 0.00 0.00 0.00 50 1021.8
20260505012128 79 35 1.0 2.0 0.00 0.00 0.00 49 1021.8
20260505011623 80 126 1.0 3.0 0.00 0.00 0.00 49 1021.8
20260505011121 80 103 1.0 1.0 0.00 0.00 0.00 49 1021.9
20260505010616 78 181 0.0 1.0 0.00 0.00 0.00 52 1021.8
20260505010113 77 91 4.0 6.0 0.00 0.00 0.00 53 1022.1
20260505005609 78 117 3.0 4.0 0.00 0.00 0.00 53 1021.8
20260505005107 78 149 2.0 3.0 0.00 0.00 0.00 53 1022.1
20260505004604 78 167 0.0 4.0 0.00 0.00 0.00 53 1022.1
20260505004100 79 151 2.0 3.0 0.00 0.00 0.00 51 1022.1
20260505003558 77 141 0.0 2.0 0.00 0.00 0.00 52 1022.1
20260505003055 77 184 0.0 3.0 0.00 0.00 0.00 54 1022.1
20260505002555 77 182 0.0 1.0 0.00 0.00 0.00 54 1022.2
20260505002055 77 74 1.0 2.0 0.00 0.00 0.00 53 1022.1
20260505001551 77 97 1.0 4.0 0.00 0.00 0.00 53 1021.8
20260505001048 77 105 1.0 3.0 0.00 0.00 0.00 54 1022.2
20260505000546 77 107 3.0 7.0 0.00 0.00 0.00 53 1022.3
20260505000043 78 97 3.0 4.0 0.00 0.00 0.00 54 1022.2
20260504235540 78 169 0.0 2.0 0.00 0.00 0.00 54 1022.4
20260504235037 78 140 0.0 2.0 0.00 0.00 0.00 53 1022.4
20260504234534 78 104 1.0 2.0 0.00 0.00 0.00 54 1022.6
20260504234031 79 65 2.0 3.0 0.00 0.00 0.00 50 1022.3
20260504233526 77 195 0.0 1.0 0.00 0.00 0.00 55 1022.4
20260504233023 77 89 1.0 3.0 0.00 0.00 0.00 54 1022.3
20260504232520 77 101 2.0 3.0 0.00 0.00 0.00 54 1022.4
20260504232018 76 131 1.0 3.0 0.00 0.00 0.00 55 1022.5
20260504231514 76 97 3.0 4.0 0.00 0.00 0.00 56 1022.4
20260504231010 76 158 0.0 1.0 0.00 0.00 0.00 56 1022.3
20260504230507 75 171 0.0 0.0 0.00 0.00 0.00 59 1022.4
20260504230006 76 78 3.0 4.0 0.00 0.00 0.00 54 1022.5
20260504225502 77 137 2.0 3.0 0.00 0.00 0.00 56 1022.3
20260504224959 77 189 0.0 0.0 0.00 0.00 0.00 56 1022.6
20260504224455 77 196 0.0 0.0 0.00 0.00 0.00 54 1022.9
20260504223953 77 187 0.0 1.0 0.00 0.00 0.00 56 1022.7
20260504223449 76 156 1.0 2.0 0.00 0.00 0.00 58 1022.8
20260504222945 75 174 0.0 2.0 0.00 0.00 0.00 57 1022.6
20260504222443 76 159 0.0 1.0 0.00 0.00 0.00 56 1023.0
20260504221940 74 306 1.0 1.0 0.00 0.00 0.00 61 1023.0
20260504221437 75 167 0.0 1.0 0.00 0.00 0.00 57 1023.2
20260504220934 76 182 0.0 1.0 0.00 0.00 0.00 57 1023.1
20260504220430 75 186 0.0 0.0 0.00 0.00 0.00 56 1023.2
20260504215928 75 191 0.0 1.0 0.00 0.00 0.00 60 1023.4
20260504215424 75 177 0.0 0.0 0.00 0.00 0.00 57 1023.4
20260504214921 74 129 1.0 2.0 0.00 0.00 0.00 60 1023.4
20260504214417 74 159 0.0 3.0 0.00 0.00 0.00 57 1023.4
20260504213914 76 130 2.0 3.0 0.00 0.00 0.00 55 1023.6
20260504213410 76 197 0.0 1.0 0.00 0.00 0.00 57 1023.4
20260504212908 75 305 0.0 1.0 0.00 0.00 0.00 59 1023.6
20260504212403 73 182 0.0 1.0 0.00 0.00 0.00 60 1023.6
20260504211901 73 197 0.0 1.0 0.00 0.00 0.00 61 1023.7
20260504211357 72 176 0.0 0.0 0.00 0.00 0.00 60 1023.7
20260504210855 74 192 0.0 3.0 0.00 0.00 0.00 60 1023.9
20260504210351 73 176 0.0 1.0 0.00 0.00 0.00 59 1023.9
20260504205848 73 180 0.0 0.0 0.00 0.00 0.00 60 1023.9
20260504205346 73 204 0.0 1.0 0.00 0.00 0.00 62 1024.0
20260504204844 71 197 1.0 3.0 0.00 0.00 0.00 59 1024.0
20260504204343 72 171 0.0 1.0 0.00 0.00 0.00 61 1024.2
20260504203842 72 159 1.0 1.0 0.00 0.00 0.00 61 1024.1
20260504203338 71 198 0.0 1.0 0.00 0.00 0.00 62 1024.3
20260504202833 72 229 0.0 1.0 0.00 0.00 0.00 62 1024.4
20260504202331 72 191 0.0 0.0 0.00 0.00 0.00 60 1024.4
20260504201828 72 183 0.0 1.0 0.00 0.00 0.00 62 1024.5
20260504201325 69 184 0.0 1.0 0.00 0.00 0.00 65 1024.5
20260504200822 70 213 0.0 1.0 0.00 0.00 0.00 65 1024.6
20260504200319 71 167 0.0 1.0 0.00 0.00 0.00 63 1024.4
20260504195815 71 223 0.0 1.0 0.00 0.00 0.00 62 1024.4
20260504195311 70 203 0.0 1.0 0.00 0.00 0.00 63 1024.5
20260504194808 70 194 0.0 1.0 0.00 0.00 0.00 62 1024.8
20260504194304 70 181 0.0 2.0 0.00 0.00 0.00 65 1024.8
20260504193800 69 197 0.0 1.0 0.00 0.00 0.00 63 1024.9
20260504193258 70 196 0.0 2.0 0.00 0.00 0.00 64 1024.7
20260504192756 70 191 2.0 4.0 0.00 0.00 0.00 61 1024.9
20260504192254 69 184 1.0 3.0 0.00 0.00 0.00 62 1024.7
20260504191753 68 157 0.0 1.0 0.00 0.00 0.00 67 1024.9
20260504191249 69 183 0.0 1.0 0.00 0.00 0.00 65 1025.0
20260504190744 70 219 0.0 3.0 0.00 0.00 0.00 63 1024.8
20260504190241 69 185 0.0 4.0 0.00 0.00 0.00 64 1025.1
20260504185738 68 189 1.0 3.0 0.00 0.00 0.00 63 1025.0
20260504185235 69 222 0.0 2.0 0.00 0.00 0.00 64 1025.1
20260504184731 69 208 0.0 2.0 0.00 0.00 0.00 64 1025.2
20260504184227 68 183 2.0 3.0 0.00 0.00 0.00 63 1025.1
20260504183723 68 189 0.0 2.0 0.00 0.00 0.00 65 1025.2
20260504183220 68 182 1.0 2.0 0.00 0.00 0.00 62 1025.1
20260504182718 68 312 0.0 4.0 0.00 0.00 0.00 64 1025.0
20260504182215 68 191 0.0 0.0 0.00 0.00 0.00 64 1025.1
20260504181712 68 186 0.0 0.0 0.00 0.00 0.00 66 1025.3
20260504181210 67 193 0.0 1.0 0.00 0.00 0.00 69 1024.9
20260504180709 66 186 0.0 0.0 0.00 0.00 0.00 69 1025.0
20260504180207 67 186 0.0 1.0 0.00 0.00 0.00 66 1024.9
20260504175704 67 184 1.0 2.0 0.00 0.00 0.00 64 1025.1
20260504175200 66 187 1.0 3.0 0.00 0.00 0.00 66 1025.2
20260504174658 66 188 2.0 3.0 0.00 0.00 0.00 65 1025.1
20260504174155 64 210 0.0 1.0 0.00 0.00 0.00 71 1025.2
20260504173652 65 191 0.0 3.0 0.00 0.00 0.00 71 1025.1
20260504173149 64 215 0.0 0.0 0.00 0.00 0.00 70 1025.3
20260504172646 63 278 0.0 1.0 0.00 0.00 0.00 72 1025.2
20260504172142 64 181 0.0 1.0 0.00 0.00 0.00 71 1025.2
20260504171639 64 189 0.0 0.0 0.00 0.00 0.00 70 1025.2
20260504171136 65 190 0.0 1.0 0.00 0.00 0.00 69 1025.1
20260504170632 66 196 0.0 1.0 0.00 0.00 0.00 67 1025.2
20260504170130 65 183 0.0 0.0 0.00 0.00 0.00 69 1025.0
20260504151016 59 192 0.0 2.0 0.00 0.00 0.00 79 1024.4
20260504150513 59 247 0.0 0.0 0.00 0.00 0.00 80 1024.4
20260504140939 55 200 0.0 0.0 0.00 0.00 0.00 85 1023.7
20260504140435 55 179 0.0 0.0 0.00 0.00 0.00 85 1023.6
20260504130400 55 202 0.0 0.0 0.00 0.00 0.00 80 1022.6
20260504110248 55 193 0.0 0.0 0.00 0.00 0.00 80 1020.8
20260504100205 57 195 1.0 1.0 0.00 0.00 0.00 78 1020.5
20260504090128 62 207 0.0 0.0 0.00 0.00 0.00 66 1020.1
20260504081558 66 83 2.0 3.0 0.00 0.00 0.00 58 1020.1
20260504081054 66 108 0.0 2.0 0.00 0.00 0.00 58 1019.7
20260504080551 66 178 0.0 3.0 0.00 0.00 0.00 57 1019.9